OpenBCM V1.13 (Linux)

Packet Radio Mailbox

DB0FHN

[JN59NK Nuernberg]

 Login: GUEST





  
I0OJJ  > KEPS     19.02.25 06:13l 326 Lines 15583 Bytes #999 (0) @ AMSAT
BID : ORB25050.1
Read: DL5MBW DJ6UX GUEST
Subj: 2Line Orbital Elements 25050.AMSAT
Path: DB0FHN<DB0FFL<OE5XBL<OE6XPE<DB0ERF<DK0WUE<PD0LPM<PI8ZTM<I0OJJ
Sent: 250219/0345z @:I0OJJ.ITA.EU [Rome] obcm1.08-6-g5b69
From: I0OJJ @ I0OJJ.ITA.EU (Gustavo)
To:   KEPS @ AMSAT
X-Info: This message was generated automatically


QST de W1STR

AMSAT Orbital Elements for Amateur Satellites in TLE Format
From Orbital Analysis Office
New England Sci-Tech STEM Education Center
Natick, MA February 19, 2025
To all radio amateurs


These element sets describe the orbits of various satellites 
in use by the amateur radio community. For details see:
www.amsat.org/keplerian-elements-formats/

A daily update of element sets is available at:
www.amsat.org/tle/daily-bulletin.txt
or without bulletin text:
www.amsat.org/tle/dailytle.txt


AO-07
1 07530U 74089B   25049.50002713 -.00000036  00000-0  63426-4 0  9996
2 07530 101.9943  52.5795 0012063 335.3748 146.2836 12.53686174299904
UO-11
1 14781U 84021B   25049.86328506  .00003795  00000-0  41178-3 0  9992
2 14781  97.7407  18.5611 0007592 356.2633   3.8526 14.88721672206165
AO-27
1 22825U 93061C   25049.72497421  .00000258  00000-0  11590-3 0  9998
2 22825  98.7532 110.6536 0009454  79.8207 280.4041 14.30731231638137
FO-29
1 24278U 96046B   25049.69996570  .00000027  00000-0  66887-4 0  9997
2 24278  98.5867 318.1271 0348890 269.8373  86.2793 13.53237592408020
NOAA-15
1 25338U 98030A   25049.81138472  .00000349  00000-0  16146-3 0  9992
2 25338  98.5481  77.5471 0009572 328.7089  31.3521 14.26886372392601
GO-32
1 25397U 98043D   25049.90795063  .00000250  00000-0  12828-3 0  9990
2 25397  98.9583  26.7915 0001822 132.8529 227.2803 14.24255734382759
ISS
1 25544U 98067A   25049.54500833  .00019261  00000-0  34150-3 0  9993
2 25544  51.6363 174.6431 0004349 332.4152  27.6605 15.50255355496766
NO-44
1 26931U 01043C   25049.29153317  .00000519  00000-0  22569-3 0  9992
2 26931  67.0503  55.5569 0005981 264.5433  95.4986 14.31622127221172
SO-50
1 27607U 02058C   25049.63548210  .00003014  00000-0  40048-3 0  9993
2 27607  64.5543 182.8474 0043074   1.9037 358.2223 14.80974103192793
CO-55
1 27844U 03031E   25049.86703582  .00000783  00000-0  36107-3 0  9999
2 27844  98.6794  59.5626 0010353 143.7958 216.3924 14.23825964122918
CO-57
1 27848U 03031J   25049.48326993  .00000642  00000-0  30330-3 0  9994
2 27848  98.6824  59.2716 0009924 160.7457 199.4098 14.23184947122617
RS-22
1 27939U 03042A   25049.82026292  .00002627  00000-0  42865-3 0  9995
2 27939  98.3147 216.6975 0011605   5.7806 101.3096 14.71782974144536
NOAA-18
1 28654U 05018A   25049.77701727  .00000381  00000-0  22536-3 0  9990
2 28654  98.8505 130.4770 0015141  85.4543 274.8358 14.13518605 18094
CO-58
1 28895U 05043F   25049.34696077  .00004530  00000-0  75925-3 0  9999
2 28895  98.2300 192.4798 0014061 300.9243  59.0580 14.70190044 30593
CO-65
1 32785U 08021C   25049.53120311  .00012492  00000-0  94879-3 0  9990
2 32785  97.7717  20.1099 0009306 223.7068 136.3420 15.02289273912394
AAUSAT2
1 32788U 08021F   25049.48426468  .00103516  00000-0  19090-2 0  9998
2 32788  97.6070  41.3778 0006363  73.8478 286.3472 15.48731707916083
CO-66
1 32791U 08021J   25049.47324508  .00019683  00000-0  10827-2 0  9993
2 32791  97.7200  27.4460 0004870 155.3813 204.7651 15.14095695913651
RS-30
1 32953U 08025A   25049.82341418  .00000024  00000-0  10567-3 0  9996
2 32953  82.5026 296.0830 0018807 289.0233  70.8810 12.43158964759767
NOAA-19
1 33591U 09005A   25049.83616501  .00000339  00000-0  20481-3 0  9998
2 33591  99.0127 113.8574 0013002 319.2777  40.7422 14.13288165826466
SRMSAT
1 37841U 11058D   25049.83095872  .00000626  00000-0  19684-3 0  9995
2 37841  19.9718 104.7049 0011561 287.4100 228.6829 14.11363985689664
ZACUBE-1
1 39417U 13066B   25049.60972552  .00010286  00000-0  93335-3 0  9999
2 39417  97.7670   7.4440 0047705  63.8204 296.7910 14.94613216608327
Delfi-N3xt
1 39428U 13066N   25049.21264390  .00017883  00000-0  19244-2 0  9998
2 39428  97.8370 328.3024 0089738   8.0999 352.1640 14.85587904602701
GOMX-1
1 39430U 13066Q   25049.87697371  .00004423  00000-0  70032-3 0  9991
2 39430  97.6989 275.2829 0133910 186.0138 173.9466 14.66837514599170
LO-74
1 39440U 13066AA  25049.40942940  .00008000  00000-0  84070-3 0  9998
2 39440  97.8391 354.9440 0063838 184.7863 175.2752 14.88202724604897
AO-73
1 39444U 13066AE  25049.82653182  .00014553  00000-0  11709-2 0  9993
2 39444  97.7507  11.7218 0043269  40.9745 319.4715 14.99335760607565
DTUSAT-2
1 40030U 14033W   25049.41292018  .00014816  00000-0  10329-2 0  9992
2 40030  98.0439  16.1520 0012201  79.3371 280.9228 15.05457328579656
EO-80
1 40032U 14033Y   25049.43933843  .00015984  00000-0  11114-2 0  9994
2 40032  98.0332  15.9840 0009934  29.7256 330.4532 15.05558447579633
XW-2C
1 40906U 15049H   25047.62605869  .06460715  25777-5  82494-3 0  9990
2 40906  97.4284  83.7622 0006300 238.5188 121.5494 16.35922890522636
LILACSAT-2
1 40908U 15049K   25049.88097328  .00018151  00000-0  53541-3 0  9992
2 40908  97.5167  67.7848 0009770 185.1668 174.9476 15.35009078521224
IO-86
1 40931U 15052B   25038.81889873  .00001817  00000-0  15548-3 0  9993
2 40931   6.0001 108.1159 0012838 187.7041 172.2889 14.78568669506492
Horyu-4
1 41340U 16012D   25049.58054863  .00029722  00000-0  99402-3 0  9990
2 41340  30.9988 154.7576 0006108 358.0158   2.0460 15.29775495495735
Lapan A3
1 41603U 16040E   25049.72427280  .00005843  00000-0  21265-3 0  9996
2 41603  97.1402  58.7587 0009697 311.8958  48.1455 15.28553210480848
CAS-2T
1 41847U 16066G   25049.20469452  .00003987  00000-0  57509-3 0  9991
2 41847  98.4308 124.6237 0348621 155.1780 206.6642 14.42954452434955
CAS-4B
1 42759U 17034B   25049.78071869  .00047027  00000-0  87784-3 0  9995
2 42759  43.0101 254.7468 0017929 239.6571 120.2516 15.47859683425346
CAS-4A
1 42761U 17034D   25049.80935321  .00050481  00000-0  92449-3 0  9995
2 42761  43.0139 252.5141 0019291 245.6870 114.1975 15.48351016425368
TechnoSat
1 42829U 17042E   25049.72735068  .00006120  00000-0  49110-3 0  9994
2 42829  97.3894 223.7958 0011844 305.7040  54.3082 15.00366502414098
AO-91
1 43017U 17073E   25049.11199357  .00015893  00000-0  85816-3 0  9996
2 43017  97.5483 282.7827 0181254 185.3840 174.5441 15.01723619392464
S-Net D
1 43186U 18014G   25049.30959933  .00010127  00000-0  62886-3 0  9991
2 43186  97.5722 313.4317 0007550 242.0476 117.9989 15.09857476385574
S-Net B
1 43187U 18014H   25049.31368294  .00010382  00000-0  64473-3 0  9994
2 43187  97.5732 313.4015 0008359 236.6840 123.3589 15.09843625385571
S-Net A
1 43188U 18014J   25049.24406120  .00010293  00000-0  63894-3 0  9995
2 43188  97.5737 313.4688 0008250 237.9444 122.0984 15.09860975385568
S-Net C
1 43189U 18014K   25049.31582849  .00010295  00000-0  63923-3 0  9992
2 43189  97.5755 313.5348 0009935 229.7416 130.2945 15.09840970384124
Ten-Koh
1 43677U 18084G   25049.53760284  .00006432  00000-0  52939-3 0  9999
2 43677  98.0856 217.3872 0010307 276.9987  83.0062 14.99436944343590
PO-101
1 43678U 18084H   25049.83403884  .00004480  00000-0  39107-3 0  9996
2 43678  98.0949 221.8438 0007383 300.8825  59.1669 14.97346992343802
QO-100
1 43700U 18090A   25049.24628009  .00000154  00000-0  00000-0 0  9993
2 43700   0.0386 290.9549 0001256  64.7263 267.2215  1.00273135 22824
MinXSS-2
1 43758U 18099A   25049.12125054  .00027160  00000-0  12462-2 0  9997
2 43758  97.5179 115.1167 0013317 183.9713 176.1419 15.20317313340008
AO-95
1 43770U 18099N   25049.15048190  .00016594  00000-0  91860-3 0  9998
2 43770  97.5089 108.6158 0010519 234.6745 125.3504 15.13865240339670
RANGE-A
1 43773U 18099R   25049.87859133  .00009312  00000-0  61980-3 0  9997
2 43773  97.4664 101.5139 0011212 205.7928 154.2743 15.07294504339538
MOVE-II
1 43780U 18099Y   25049.74461005  .00074386  00000-0  16997-2 0  9998
2 43780  97.4820 120.0669 0004298 191.2508 168.8644 15.42570720340554
SNUSat 2
1 43782U 18099AA  25049.65978418  .00011738  00000-0  68972-3 0  9994
2 43782  97.4773 106.7292 0013063 171.8508 188.2937 15.11775958339724
SnugLite
1 43784U 18099AC  25049.13750576  .00016903  00000-0  92879-3 0  9994
2 43784  97.4590 105.5950 0004062 164.5415 195.5942 15.14163474339753
ITASat 1
1 43786U 18099AE  25049.55568092  .00011206  00000-0  68181-3 0  9992
2 43786  97.4743 106.4334 0014229 225.6364 134.3701 15.10510511339689
EAGLET 1
1 43790U 18099AJ  25049.69774321  .00008126  00000-0  53981-3 0  9995
2 43790  97.4938 106.8389 0012041 204.5775 155.4881 15.07400103339354
ESEO
1 43792U 18099AL  25049.70156572  .00003539  00000-0  27537-3 0  9992
2 43792  97.4590 101.5287 0010889 171.0321 189.1101 15.01827346339177
CSIM
1 43793U 18099AM  25049.73075446  .00083236  00000-0  18902-2 0  9993
2 43793  97.4998 122.0410 0007168 168.8040 191.3367 15.42702094340396
JO-97
1 43803U 18099AX  25049.12771043  .00020384  00000-0  10400-2 0  9994
2 43803  97.4832 109.4051 0008486 167.6291 192.5152 15.16729294339850
Suomi 100
1 43804U 18099AY  25049.71020023  .00016175  00000-0  86844-3 0  9994
2 43804  97.4900 109.5424 0013656 169.2696 190.8830 15.14927191339896
ISAT
1 43879U 18111D   25049.28927366  .00031751  00000-0  13337-2 0  9992
2 43879  97.6032 321.6925 0008255 217.5040 142.5622 15.23350111336711
UWE-4
1 43880U 18111E   25049.67957099  .00021337  00000-0  97107-3 0  9990
2 43880  97.5966 321.2369 0011359 232.5651 127.4551 15.20671811334744
Sparrow
1 43881U 18111F   25049.54649483  .00028485  00000-0  11660-2 0  9992
2 43881  97.6154 324.4457 0005266 268.2114  91.8520 15.24264958336834
Prox-1
1 44339U 19036A   25049.37871322  .00020828  00000-0  29039-2 0  9990
2 44339  23.9982  70.3704 0007467 238.1001 121.8769 14.76193510301542
SONATE
1 44400U 19038Q   25049.50534574  .00075725  00000-0  95157-3 0  9992
2 44400  97.7100  64.6807 0006715 306.6945  53.3693 15.59419071312109
